Station CPTR1 - 8452944 - Conimicut Light, RI Image indicating link to RSS feed of recent meteorological observations for station CPTR1


Conditions at CPTR1 as of
(9:48 am EDT)
1348 GMT on 04/16/2024:
     

Click on the graph icon in the table below to see a time series plot of the last five days of that observation.

5-day plot - Wind Direction Wind Direction (WDIR): NW ( 310 deg true )
5-day plot - Wind Speed Wind Speed (WSPD): 12.0 kts
5-day plot - Wind Gust Wind Gust (GST): 15.9 kts
5-day plot - Atmospheric Pressure Atmospheric Pressure (PRES):30.09 in
5-day plot - Air Temperature Air Temperature (ATMP): 55.0 °F
5-day plot - Water Temperature Water Temperature (WTMP): 48.9 °F
5-day plot - Wind Speed at 10 Meters Wind Speed at 10 meters (WSPD10M): 11.7 kts
5-day plot - Wind Speed at 20 Meters Wind Speed at 20 meters (WSPD20M): 11.7 kts
5-day plot -  Wind Speed, Wind Gust and Atmospheric Pressure Combined plot of Wind Speed, Gust, and Air Pressure
NOS Water Level Observation Network Water Level
Previous observations
TIME
(EDT)
5-day plot - Wind Direction
WDIR
 
5-day plot - Wind Speed
WSPD
kts
5-day plot - Wind Gust
GST
kts
5-day plot - Wave Height
WVHT
ft
5-day plot - Dominant Wave Period
DPD
sec
5-day plot - Average Wave Period
APD
sec
5-day plot - Mean Wave Direction
MWD
 
5-day plot - Atmospheric Pressure
PRES
in
5-day plot - Pressure Tendency
PTDY
in
5-day plot - Air Temperature
ATMP
°F
5-day plot - Water Temperature
WTMP
°F
5-day plot - Dew Point
DEWP
°F
5-day plot - Salinity
SAL
psu
5-day plot - Visibility
VIS
nmi
5-day plot - Tide (above MLLW)
TIDE
ft
2024-04-16 09:42 am NW 13.0 15.0----30.09- 55.2 48.9----
2024-04-16 09:36 am NW 12.0 14.0----30.09- 55.2 48.9----
2024-04-16 09:30 am NW 13.0 15.0----30.09- 54.9 48.9----
2024-04-16 09:24 am NW 12.0 15.0----30.08- 54.3 49.1----
2024-04-16 09:18 am NW 13.0 14.0----30.08- 54.3 49.1----
2024-04-16 09:12 am NW 13.0 14.0----30.08- 54.3 49.1----
2024-04-16 09:06 am NW 13.0 14.0----30.08- 54.1 49.3----
2024-04-16 09:00 am NW 12.0 14.0----30.07+0.04 54.0 49.5----
2024-04-16 08:54 am NW 12.0 15.0----30.07- 53.8 49.5----
2024-04-16 08:48 am NW 9.9 12.0----30.07- 53.6 49.5----
2024-04-16 08:42 amWNW 8.9 12.0----30.07- 53.4 49.8----
2024-04-16 08:36 amWNW 8.0 14.0----30.07- 53.1 50.4----
2024-04-16 08:30 amWNW 13.0 15.0----30.07- 53.4 50.4----
2024-04-16 08:24 amWNW 12.0 14.0----30.07- 53.2 50.2----
2024-04-16 08:18 amWNW 9.9 12.0----30.07- 52.9 50.2----
2024-04-16 08:12 amWNW 8.9 12.0----30.07- 52.7 50.0----
2024-04-16 08:06 am W 9.9 13.0----30.07- 52.7 50.2----
2024-04-16 08:00 amWNW 8.0 11.1----30.07+0.06 52.0 50.4----
2024-04-16 07:54 amWNW 8.0 9.9----30.07- 51.4 50.5----
2024-04-16 07:48 am W 7.0 8.9----30.06- 51.1 50.5----
2024-04-16 07:42 am W 7.0 8.0----30.06- 50.9 50.4----
2024-04-16 07:36 am W 7.0 8.9----30.06- 50.7 50.2----
2024-04-16 07:30 am W 8.0 8.9----30.06- 50.5 50.0----
2024-04-16 07:24 am W 6.0 8.0----30.06- 50.4 50.0----
2024-04-16 07:18 amWSW 5.1 7.0----30.06- 49.8 50.0----
2024-04-16 07:12 am W 4.1 5.1----30.06- 49.6 50.0----
2024-04-16 07:06 am W 4.1 5.1----30.05- 49.5 50.0----
2024-04-16 07:00 am W 5.1 6.0----30.05+0.06 49.6 50.0----
2024-04-16 06:54 am W 5.1 6.0----30.05- 49.8 50.0----
2024-04-16 06:48 am W 5.1 6.0----30.05- 50.2 50.2----
2024-04-16 06:42 am W 5.1 6.0----30.04- 50.2 50.2----
2024-04-16 06:36 am W 5.1 6.0----30.04- 50.4 50.2----
2024-04-16 06:30 am W 6.0 7.0----30.04- 50.2 50.5----
2024-04-16 06:24 am W 5.1 6.0----30.04- 50.4 50.9----
2024-04-16 06:18 am W 6.0 7.0----30.04- 50.4 51.1----
2024-04-16 06:12 am W 6.0 8.0----30.03- 50.2 51.3----
2024-04-16 06:06 am W 6.0 7.0----30.03- 50.0 51.3----
2024-04-16 06:00 am W 6.0 8.0----30.03+0.05 50.0 51.3----
2024-04-16 05:54 am W 6.0 7.0----30.03- 50.4 51.3----
2024-04-16 05:48 am W 6.0 7.0----30.03- 50.4 51.4----
2024-04-16 05:42 am W 6.0 7.0----30.02- 50.5 51.8----
2024-04-16 05:36 am W 6.0 8.0----30.02- 50.9 51.8----
2024-04-16 05:30 am W 5.1 7.0----30.02- 51.1 51.6----
2024-04-16 05:24 am W 7.0 8.0----30.02- 51.6 51.1----
2024-04-16 05:18 am W 6.0 7.0----30.01- 51.4 50.9----
2024-04-16 05:12 am W 6.0 8.0----30.01- 51.4 50.7----
2024-04-16 05:06 am W 7.0 8.0----30.01- 52.0 50.5----
2024-04-16 05:00 am W 8.0 8.9----30.01+0.03 51.6 50.5----
2024-04-16 04:54 am W 8.9 11.1----30.01- 51.8 50.2----
2024-04-16 04:48 am W 8.9 8.9----30.01- 52.2 49.6----
2024-04-16 04:42 am W 6.0 7.0----30.00- 52.2 49.3----
2024-04-16 04:36 am W 6.0 6.0----30.00- 52.3 49.1----
2024-04-16 04:30 am W 5.1 6.0----30.00- 52.5 48.9----
2024-04-16 04:24 am W 6.0 6.0----30.00- 52.5 48.9----
2024-04-16 04:18 am W 6.0 6.0----30.00- 52.2 48.9----
2024-04-16 04:12 am W 6.0 6.0----30.00- 52.0 48.7----
2024-04-16 04:06 am W 5.1 5.1----30.00- 51.8 48.6----
2024-04-16 04:00 am W 5.1 5.1----30.00+0.01 51.8 48.4----
2024-04-16 03:54 am W 5.1 5.1----30.00- 52.0 48.2----
2024-04-16 03:48 am W 5.1 5.1----30.00- 52.2 48.2----
2024-04-16 03:42 amWNW 5.1 5.1----29.99- 52.3 48.0----
2024-04-16 03:36 am W 5.1 6.0----29.99- 52.3 48.0----
2024-04-16 03:30 am W 6.0 6.0----29.99- 52.5 48.0----
2024-04-16 03:24 am W 5.1 5.1----29.99- 52.7 48.2----
2024-04-16 03:18 am W 5.1 5.1----29.98- 52.7 48.2----
2024-04-16 03:12 am W 5.1 5.1----29.98- 52.9 48.2----
2024-04-16 03:06 am W 5.1 5.1----29.98- 53.1 48.4----
2024-04-16 03:00 amWNW 5.1 5.1----29.98+0.03 53.2 48.4----
2024-04-16 02:54 amWNW 4.1 4.1----29.98- 52.7 48.6----
2024-04-16 02:48 am NW 4.1 5.1----29.98- 52.9 48.6----
2024-04-16 02:42 amWNW 5.1 6.0----29.98- 53.4 48.6----
2024-04-16 02:36 amWNW 5.1 5.1----29.98- 53.2 48.6----
2024-04-16 02:30 am NW 4.1 4.1----29.98- 53.2 48.7----
2024-04-16 02:24 am NW 4.1 5.1----29.98- 53.2 48.7----
2024-04-16 02:18 amNNW 5.1 7.0----29.98- 53.4 48.7----
2024-04-16 02:12 amNNW 6.0 8.0----29.98- 53.4 48.7----
2024-04-16 02:06 am NW 7.0 7.0----29.98- 53.2 48.7----
2024-04-16 02:00 am NW 5.1 6.0----29.98+0.03 53.1 48.7----
2024-04-16 01:54 am NW 5.1 5.1----29.98- 53.4 48.7----
2024-04-16 01:48 am NW 5.1 6.0----29.98- 53.6 48.7----
2024-04-16 01:42 am NW 5.1 6.0----29.98- 53.6 48.9----
2024-04-16 01:36 am NW 6.0 7.0----29.98- 53.6 49.1----
2024-04-16 01:30 amNNW 7.0 8.0----29.97- 53.4 49.3----
2024-04-16 01:24 amNNW 8.0 8.9----29.97- 53.8 49.6----
2024-04-16 01:18 amNNW 7.0 8.0----29.97- 54.0 49.8----
2024-04-16 01:12 am NW 7.0 8.9----29.98- 54.1 50.0----
2024-04-16 01:06 amNNW 8.0 8.0----29.97- 54.0 50.4----
2024-04-16 01:00 amWNW 5.1 6.0----29.98+0.06 54.1 50.4----
2024-04-16 12:54 am NW 6.0 7.0----29.98- 54.3 50.7----
2024-04-16 12:48 amNNW 5.1 6.0----29.97- 54.3 50.7----
2024-04-16 12:42 amNNW 6.0 8.0----29.96- 54.3 50.9----
2024-04-16 12:36 amNNW 7.0 8.9----29.96- 54.5 51.4----
2024-04-16 12:30 amWNW 8.0 12.0----29.96- 55.0 51.4----
2024-04-16 12:24 amWNW 11.1 12.0----29.97- 54.7 52.5----
2024-04-16 12:18 am W 7.0 9.9----29.98- 55.2 53.4----
2024-04-16 12:12 amNNW 11.1 13.0----29.95- 55.6 53.8----
2024-04-16 12:06 am NW 13.0 14.0----29.95- 55.8 53.8----
2024-04-16 12:00 am NW 14.0 15.9----29.96+0.04 56.3 54.0----
2024-04-15 11:54 pm NW 14.0 15.0----29.96- 56.8 54.0----
2024-04-15 11:48 pm NW 9.9 13.0----29.95- 56.8 54.0----
2024-04-15 11:42 pm NW 9.9 12.0----29.95- 56.5 54.0----
2024-04-15 11:36 pm NW 9.9 12.0----29.96- 56.5 54.0----
2024-04-15 11:30 pm NW 6.0 8.0----29.96- 56.5 54.0----
2024-04-15 11:24 pm NW 8.0 8.9----29.96- 56.7 53.8----
2024-04-15 11:18 pm NW 7.0 9.9----29.95- 56.5 53.8----
2024-04-15 11:12 pm NW 11.1 14.0----29.95- 56.5 53.8----
2024-04-15 11:06 pm NW 12.0 14.0----29.95- 56.5 53.8----
2024-04-15 11:00 pmWNW 13.0 20.0----29.95+0.08 56.8 53.8----
2024-04-15 10:54 pmWNW 20.0 21.0----29.95- 57.6 53.8----
2024-04-15 10:48 pmWNW 18.1 22.0----29.95- 57.7 53.8----
2024-04-15 10:42 pm NW 15.9 20.0----29.95- 57.9 53.8----
2024-04-15 10:36 pmWNW 17.1 20.0----29.96- 58.1 53.8----
2024-04-15 10:30 pm NW 15.9 20.0----29.94-- 53.8----
2024-04-15 10:24 pm NW 17.1 22.0----29.94-- 53.6----
2024-04-15 10:18 pm NW 17.1 20.0----29.93- 58.8 53.6----
2024-04-15 10:12 pm NW 15.9 19.0----29.93- 58.8 53.6----
2024-04-15 10:06 pm NW 18.1 22.0----29.93- 59.2 53.4----
2024-04-15 10:00 pmNNW 17.1 20.0----29.93+0.09 59.4 53.2----
2024-04-15 09:54 pmNNW 18.1 20.0----29.93- 59.2 52.7----
2024-04-15 09:48 pmNNW 15.9 21.0----29.93- 59.7 52.0----
2024-04-15 09:42 pmNNW 19.0 21.0----29.93- 59.9 51.6----
2024-04-15 09:36 pmNNW 15.9 17.1----29.92- 59.9 51.3----
2024-04-15 09:30 pm NW 13.0 15.0----29.93- 59.7 51.1----
2024-04-15 09:24 pmNNW 13.0 15.9----29.92- 60.3 50.9----
2024-04-15 09:18 pmNNW 15.0 15.9----29.92- 60.6 50.9----
2024-04-15 09:12 pmNNW 14.0 17.1----29.92- 61.2 50.9----
2024-04-15 09:06 pmNNW 13.0 15.0----29.92- 61.3 50.7----
2024-04-15 09:00 pmNNW 13.0 15.0----29.91+0.13- 50.5----
2024-04-15 08:54 pmNNW 11.1 13.0----29.91-- 50.7----
2024-04-15 08:48 pmNNW 8.0 12.0----29.90- 60.6 50.9----
2024-04-15 08:42 pmNNW 9.9 11.1----29.90- 61.5 51.6----
2024-04-15 08:36 pmNNW 8.0 12.0----29.90- 61.5 52.2----
2024-04-15 08:30 pmNNW 8.0 11.1----29.90- 61.9 52.5----
2024-04-15 08:24 pmNNW 8.9 9.9----29.89- 61.0 53.1----
2024-04-15 08:18 pm NW 9.9 9.9----29.89-- 52.9----
2024-04-15 08:12 pm NW 9.9 12.0----29.88-- 53.8----
2024-04-15 08:06 pm NW 9.9 13.0----29.88-- 54.1----
2024-04-15 08:00 pm NW 12.0 13.0----29.87+0.09 62.8 54.1----
2024-04-15 07:54 pmNNW 9.9 12.0----29.86- 63.1 54.1----
2024-04-15 07:48 pm NW 9.9 12.0----29.87- 63.1 54.1----
2024-04-15 07:42 pm NW 9.9 13.0----29.86- 62.8 54.3----
2024-04-15 07:36 pmNNW 8.0 12.0----29.86- 63.3 54.3----
2024-04-15 07:30 pmNNW 8.0 11.1----29.85- 63.1 54.3----
2024-04-15 07:24 pm N 8.0 11.1----29.85- 63.3 54.5----
2024-04-15 07:00 pmNNW 11.1 13.0----29.83+0.08 63.5 54.9----
2024-04-15 06:54 pmNNW 13.0 15.9----29.83- 63.7 55.0----
2024-04-15 06:48 pmNNW 12.0 17.1----29.82- 64.6 55.2----
2024-04-15 06:42 pm NW 15.0 17.1----29.82- 64.6 55.6----
2024-04-15 06:36 pm NW 14.0 17.1----29.81- 65.3 55.8----
2024-04-15 06:30 pm NW 15.0 15.9----29.81-- 55.9----
2024-04-15 06:24 pm NW 14.0 15.9----29.80-- 55.8----
2024-04-15 06:18 pm NW 15.0 18.1----29.80- 66.4 55.6----
2024-04-15 06:12 pm NW 18.1 20.0----29.79- 66.7 55.4----
2024-04-15 06:06 pm NW 18.1 22.0----29.79- 67.5 55.2----
2024-04-15 06:00 pm NW 17.1 18.1----29.79+0.02 66.7 55.0----
2024-04-15 05:54 pmWNW 15.0 25.1----29.78- 70.5 54.9----
2024-04-15 05:48 pm W 14.0 19.0----29.78- 69.4 54.9----
2024-04-15 05:42 pm W 15.9 20.0----29.78- 70.5 54.7----
2024-04-15 05:36 pm W 17.1 24.1----29.78- 70.2 54.5----
2024-04-15 05:30 pm W 18.1 22.9----29.78- 70.3 54.5----
2024-04-15 05:24 pm W 20.0 24.1----29.77- 70.2 54.3----
2024-04-15 05:18 pm W 15.0 19.0------ 70.3 54.3----
2024-04-15 05:12 pm W 18.1 24.1------ 70.2 54.1----
2024-04-15 05:06 pmWSW 19.0 25.1------ 72.0 53.8----
2024-04-15 05:00 pmWSW 20.0 25.1----29.78+0.00 71.6 53.6----
2024-04-15 04:54 pm W 17.1 22.9----29.77- 71.4 53.4----
2024-04-15 04:48 pmWSW 17.1 22.0----29.77- 72.5 53.4----
2024-04-15 04:42 pmWSW 8.0 19.0----29.77- 69.1 53.4----
2024-04-15 04:36 pm S 8.0 15.0----29.77- 61.0 53.4----
2024-04-15 04:30 pmESE 8.9 11.1----29.76- 60.6 53.4----
2024-04-15 04:24 pm SE 8.0 12.0----29.76- 61.9 53.2----
2024-04-15 04:18 pm SE 8.9 15.0----29.76- 60.8 53.1----
2024-04-15 04:12 pmESE 15.9 18.1----29.75- 59.0 52.7----
2024-04-15 04:06 pmESE 17.1 20.0----29.75- 58.8 52.9----
2024-04-15 04:00 pmESE 15.9 18.1----29.75-0.02 58.5 53.1----
2024-04-15 03:54 pmESE 13.0 18.1----29.75- 58.1 53.4----
2024-04-15 03:48 pm SE 15.9 18.1----29.75- 56.7 53.4----
2024-04-15 03:42 pmESE 15.9 17.1----29.75- 57.7 53.2----
2024-04-15 03:36 pmESE 15.0 15.9----29.76- 58.3 52.9----
2024-04-15 03:30 pm SE 14.0 15.9----29.76- 57.9 52.5----
2024-04-15 03:24 pmESE 14.0 15.9----29.76- 58.6 52.0----
2024-04-15 03:18 pmESE 15.9 17.1----29.76- 57.7 52.0----
2024-04-15 03:12 pmESE 15.0 18.1----29.76- 57.4 52.0----
2024-04-15 03:06 pmESE 15.9 19.0----29.76- 57.7 51.6----
2024-04-15 03:00 pm SE 13.0 19.0----29.77-0.03 56.7 51.1----
2024-04-15 02:54 pmSSE 17.1 19.0----29.76- 57.7 50.4----
2024-04-15 02:48 pm S 11.1 14.0----29.76- 62.4 50.4----
2024-04-15 02:42 pmESE 11.1 15.9----29.77- 58.6 50.7----
2024-04-15 02:36 pmSSE 12.0 15.9----29.76- 59.5 50.5----
2024-04-15 02:30 pm S 15.0 21.0----29.76- 59.9 50.5----
2024-04-15 02:24 pmSSE 15.0 25.1----29.77- 59.7 50.4----
2024-04-15 02:18 pmSSE 13.0 17.1----29.76- 57.4 50.4----
2024-04-15 02:12 pmSSE 11.1 15.9----29.77- 60.3 50.4----
2024-04-15 02:06 pm S 12.0 17.1----29.77- 59.5 50.5----
2024-04-15 02:00 pm S 8.9 13.0----29.77-0.04 60.8 50.5----
2024-04-15 01:54 pm S 13.0 15.9----29.77- 60.4 50.4----
2024-04-15 01:48 pmSSE 9.9 12.0----29.77- 60.4 50.4----
2024-04-15 01:42 pmSSE 9.9 12.0----29.77- 59.4 50.4----
2024-04-15 01:36 pmSSE 11.1 13.0----29.77- 59.0 50.4----
2024-04-15 01:30 pmSSE 12.0 13.0----29.77- 59.9 50.5----
2024-04-15 01:24 pm SE 12.0 13.0----29.77- 58.6 50.4----
2024-04-15 01:18 pm SE 8.9 9.9----29.77- 58.5 50.4----
2024-04-15 01:12 pm SE 9.9 9.9----29.77- 57.2 50.2----
2024-04-15 01:06 pm SE 7.0 8.9----29.77- 57.6 50.2----
2024-04-15 01:00 pmESE 8.0 8.0----29.77-0.05 58.3 50.4----
2024-04-15 12:54 pmESE 7.0 9.9----29.77- 59.9 50.4----
2024-04-15 12:48 pmESE 8.9 8.9----29.77- 58.1 50.4----
2024-04-15 12:42 pmESE 8.9 8.9----29.78- 55.6 50.4----
2024-04-15 12:36 pmESE 8.0 8.9----29.78- 56.5 50.4----
2024-04-15 12:30 pm SE 8.0 8.9----29.78- 56.3 50.4----
2024-04-15 12:24 pm SE 8.9 9.9----29.79- 56.7 50.2----
2024-04-15 12:18 pm SE 9.9 9.9----29.79- 55.6 50.2----
2024-04-15 12:12 pm SE 9.9 11.1----29.79- 54.5 50.2----
2024-04-15 12:06 pm SE 11.1 11.1----29.79- 54.3 50.2----
2024-04-15 12:00 pm SE 9.9 9.9----29.80-0.01 54.3 50.2----
2024-04-15 11:54 am SE 9.9 9.9----29.80- 54.3 50.2----
2024-04-15 11:48 am SE 9.9 9.9----29.80- 54.0 50.2----
2024-04-15 11:42 am SE 8.9 8.9----29.80- 53.8 50.2----
2024-04-15 11:36 am SE 8.9 9.9----29.81- 53.4 50.0----
2024-04-15 11:30 am SE 8.9 8.9----29.81- 52.9 49.8----
2024-04-15 11:24 am SE 8.0 8.0----29.81- 53.2 49.8----
2024-04-15 11:18 amSSE 8.9 8.9----29.81- 52.5 49.8----
2024-04-15 11:12 amSSE 8.9 8.9----29.82- 53.1 50.0----
2024-04-15 11:06 am SE 8.0 8.9----29.82- 53.2 50.0----
2024-04-15 11:00 am SE 6.0 7.0----29.82+0.02 52.9 49.8----
2024-04-15 10:54 am SE 6.0 7.0----29.82- 52.5 50.0----
2024-04-15 10:48 am SE 6.0 6.0----29.82- 52.3 50.2----
2024-04-15 10:42 am SE 5.1 6.0----29.82- 52.5 50.2----
2024-04-15 10:36 amESE 5.1 6.0----29.82- 51.8 50.2----
2024-04-15 10:30 amESE 6.0 6.0----29.82-- 50.2----
2024-04-15 10:24 amESE 6.0 6.0----29.82-- 50.2----
2024-04-15 10:18 amESE 6.0 6.0----29.82- 51.1 50.2----
2024-04-15 10:12 amESE 5.1 6.0----29.82- 50.9 50.2----
2024-04-15 10:06 amESE 5.1 5.1----29.82- 50.5 50.2----
2024-04-15 10:00 amESE 5.1 5.1----29.82+0.06 50.5 50.2----
2024-04-15 09:54 am SE 5.1 6.0----29.83- 50.4 50.2----